Train No Train Name From To Distance Stops avg_speed (km/hr)
12561 Swatantrata Sainani Express Jaynagar New Delhi 1241 20 55
A Train's "Departure" Station, "Arrival" Station and "Distance" may vary. Although we have verified some of this data from enquiry.indianrail.gov.in
Train No Start Date (yyyy-mm-dd) Status Delay Time Source
12561 2017-01-01 Late 14 hours 05 minutes Source
12561 2017-01-02 Late 32 hours 40 minutes Source
12561 2017-01-03 Late 31 hours 20 minutes Source
12561 2017-01-04 Late 39 hours 35 minutes Source
12561 2017-01-06 Late 29 hours 12 minutes Source
12561 2017-01-08 Late 16 hours 50 minutes Source
12561 2017-01-09 Late 10 hours 02 minutes Source
12561 2017-01-10 Late 16 hours 39 minutes Source
12561 2017-01-11 Late 23 hours 05 minutes Source
12561 2017-01-13 Late 09 hours 40 minutes Source
12561 2017-01-14 Late 09 hours 40 minutes Source
12561 2017-01-15 Late 08 hours 50 minutes Source
12561 2017-01-16 Late 17 hours 42 minutes Source
12561 2017-01-17 Late 17 hours 55 minutes Source
12561 2017-01-18 Late 14 hours 52 minutes Source
12561 2017-01-20 Late 10 hours 25 minutes Source
12561 2017-01-21 Late 08 hours 19 minutes Source
12561 2017-01-22 Late 09 hours 34 minutes Source
12561 2017-01-23 Late 15 hours 45 minutes Source
12561 2017-01-24 Late 14 hours 45 minutes Source
12561 2017-01-25 Late 18 hours 21 minutes Source
12561 2017-01-27 Late 09 hours 30 minutes Source
12561 2017-01-28 Late 05 hours 55 minutes Source
12561 2017-01-29 Late 11 hours 00 minutes Source
12561 2017-01-30 Late 15 hours 08 minutes Source
12561 2017-01-31 Late 22 hours 40 minutes Source
12561 2017-02-01 Late 25 hours 03 minutes Source
12561 2017-02-03 Late 17 hours 00 minutes Source
12561 2017-02-04 Late 06 hours 20 minutes Source
12561 2017-02-05 Late 09 hours 24 minutes Source
12561 2017-02-06 Late 19 hours 30 minutes Source
12561 2017-02-07 Late 12 hours 40 minutes Source
12561 2017-02-08 Late 10 hours 40 minutes Source
12561 2017-02-10 Late 06 hours 54 minutes Source
12561 2017-02-11 Late 08 hours 27 minutes Source
12561 2017-02-12 Late 09 hours 00 minutes Source
12561 2017-02-13 Late 11 hours 55 minutes Source
12561 2017-02-14 Late 08 hours 35 minutes Source
12561 2017-02-15 Late 13 hours 55 minutes Source
12561 2017-02-17 Late 09 hours 08 minutes Source
12561 2017-02-18 Late 06 hours 48 minutes Source
12561 2017-02-19 Late 11 hours 25 minutes Source
12561 2017-02-20 Late 11 hours 25 minutes Source
12561 2017-02-21 Late 20 hours 13 minutes Source
12561 2017-02-22 Late 16 hours 15 minutes Source
12561 2017-02-24 Late 09 hours 35 minutes Source
12561 2017-02-25 Late 09 hours 30 minutes Source
12561 2017-02-26 Late 07 hours 20 minutes Source
12561 2017-02-27 Late 09 hours 51 minutes Source
12561 2017-02-28 Late 06 hours 52 minutes Source
Page 1 of 3, showing 50 records out of 110 total